EFTP Weather Reports


time (UTC)temp
F
wind
direction
speed
knots
gust
knots
rain 1hr
in
rain 24hr
in
rain mn
in
humidity
%
barometer
mb
20260506082723 45 255 14.8 21.7 0.00 0.00 0.00 35 1011.9
20260506080722 45 253 14.8 20.9 0.00 0.00 0.00 35 1011.7
20260506072723 45 261 13.0 17.4 0.00 0.00 0.00 37 1011.5
20260506070722 44 255 13.0 18.2 0.00 0.00 0.00 44 1011.3
20260506060722 42 288 7.8 13.0 0.00 0.00 0.00 52 1011.1
20260506050722 39 261 7.0 9.6 0.00 0.00 0.00 72 1010.7
20260506044722 38 257 7.0 9.6 0.00 0.00 0.00 73 1010.5
20260506042722 37 256 7.0 9.6 0.00 0.00 0.00 77 1010.4
20260506040721 36 247 7.0 8.7 0.00 0.00 0.00 83 1010.2
20260506034722 34 252 5.2 6.1 0.00 0.00 0.00 88 1010.1
20260506032721 32 247 5.2 6.1 0.00 0.00 0.00 90 1009.9
20260506030722 31 242 4.3 5.2 0.00 0.00 0.00 92 1009.7
20260506024721 30 238 5.2 7.0 0.00 0.00 0.00 91 1009.5
20260506022721 31 243 4.3 6.1 0.00 0.00 0.00 91 1009.1
20260506020721 32 258 7.0 7.8 0.00 0.00 0.00 92 1009.1
20260506014721 33 262 7.0 8.7 0.00 0.00 0.00 89 1008.9
20260506012721 33 266 7.0 9.6 0.00 0.00 0.00 88 1008.8
20260506010721 33 253 7.8 11.3 0.00 0.00 0.00 89 1008.6
20260506004721 31 247 6.1 7.0 0.00 0.00 0.00 90 1008.4
20260506002721 33 255 7.0 9.6 0.00 0.00 0.00 87 1008.2
20260506000721 30 241 7.0 8.7 0.00 0.00 0.00 88 1008.3
20260505234721 32 230 7.0 7.8 0.00 0.00 0.00 86 1008.1
20260505232721 32 234 7.0 7.8 0.00 0.00 0.00 86 1008.2
20260505230721 31 249 7.0 7.8 0.00 0.00 0.00 85 1008.1
20260505224720 32 259 5.2 7.0 0.00 0.00 0.00 83 1008.0
20260505222720 35 263 6.1 7.8 0.00 0.00 0.00 78 1007.8
20260505220721 36 265 7.8 11.3 0.00 0.00 0.00 74 1007.7
20260505214721 36 267 5.2 7.8 0.00 0.00 0.00 72 1007.7
20260505212721 37 266 7.0 10.4 0.00 0.00 0.00 68 1007.6
20260505210720 37 273 7.8 10.4 0.00 0.00 0.00 65 1007.4
20260505204720 38 272 8.7 11.3 0.00 0.00 0.00 63 1007.2
20260505202721 39 278 8.7 12.2 0.00 0.00 0.00 60 1007.0
20260505200720 39 275 9.6 13.0 0.00 0.00 0.00 60 1006.9
20260505194720 40 277 9.6 13.9 0.00 0.00 0.00 56 1006.8
20260505192720 40 271 7.8 12.2 0.00 0.00 0.00 54 1006.8
20260505190720 41 268 7.8 13.0 0.00 0.00 0.00 52 1006.6
20260505184720 41 271 8.7 12.2 0.00 0.00 0.00 49 1006.3
20260505182720 42 272 9.6 14.8 0.00 0.00 0.00 46 1006.0
20260505180720 43 270 11.3 15.6 0.00 0.00 0.00 46 1005.8
20260505174719 44 272 11.3 15.6 0.00 0.00 0.00 47 1005.6
20260505172719 44 276 10.4 15.6 0.00 0.00 0.00 46 1005.5
20260505170719 45 282 11.3 14.8 0.00 0.00 0.00 46 1005.4
20260505164719 46 271 11.3 15.6 0.00 0.00 0.00 45 1005.1
20260505162719 46 284 8.7 13.9 0.00 0.00 0.00 43 1005.1
20260505160719 45 270 10.4 13.9 0.00 0.00 0.00 45 1004.9
20260505152719 47 258 12.2 20.0 0.00 0.00 0.00 40 1004.6
20260505150719 47 272 9.6 16.5 0.00 0.00 0.00 41 1004.6
20260505124718 46 282 11.3 17.4 0.00 0.00 0.00 44 1004.0
20260505122718 48 258 14.8 23.5 0.00 0.00 0.00 42 1003.8
20260505120718 47 265 14.8 18.2 0.00 0.00 0.00 43 1003.6
20260505114718 46 267 14.8 24.3 0.00 0.00 0.00 43 1003.6
20260505112718 46 265 16.5 23.5 0.00 0.00 0.00 44 1003.4
20260505110718 46 277 11.3 21.7 0.00 0.00 0.00 48 1003.2
20260505100718 46 261 10.4 19.1 0.00 0.00 0.00 52 1002.6
20260505094717 43 266 11.3 18.2 0.00 0.00 0.00 63 1002.6
20260505092717 42 300 8.7 13.0 0.00 0.00 0.00 67 1002.5
20260505090717 43 279 13.0 19.1 0.00 0.00 0.00 66 1002.3
20260505084718 42 269 13.0 21.7 0.00 0.00 0.00 70 1002.2